Change the Weather History Date:

Sunday, April 21, 2013

  Actual Average Record
Temperature  
Mean Temperature 72 °F -  
Max Temperature 79 °F 77 °F 86 °F (2002)
Min Temperature 66 °F 59 °F 55 °F (1999)
Cooling Degree Days 7    
Growing Degree Days 22 (Base 50)    
Moisture  
Dew Point 68 °F    
Average Humidity 91    
Maximum Humidity 100    
Minimum Humidity 75    
Precipitation  
Precipitation 1.44 in - - ()
Sea Level Pressure  
Sea Level Pressure 30.19 in    
Wind  
Wind Speed 9 mph (NE)    
Max Wind Speed 16 mph    
Max Gust Speed 22 mph    
Visibility 9 miles    
Events Rain , Thunderstorm    
Averages and records for this station are not official NWS values.
T = Trace of Precipitation, MM = Missing Value Source: NWS Daily Summary

Daily Weather History Graph

Daily Weather History Graph

Search for Another Location

Airport or City:

Trip Planner

Search our weather history database for the weather conditions in past years. The results will help you decide how hot, cold, wet, or windy it might be!

Date:

Astronomy

Apr. 21, 2013 Rise Set
Actual Time 6:50 AM EDT 7:52 PM EDT
Civil Twilight 6:26 AM EDT 8:16 PM EDT
Nautical Twilight 5:57 AM EDT 8:45 PM EDT
Astronomical Twilight 5:27 AM EDT 9:15 PM EDT
Moon 3:55 PM EDT (4/21) 3:50 AM EDT (4/21)
Length of Visible Light 13h 50m
Length of Day
13h 01m
Waxing Gibbous, 79% of the Moon is Illuminated
Apr 21
Waxing Gibbous
Apr 25
Full
May 2
Last Quarter
May 9
New
May 18
First Quarter

Hourly Weather History & Observations

Time (EDT) Temp. Dew Point Humidity Pressure Visibility Wind Dir Wind Speed Gust Speed Precip Events Conditions
12:58 AM 66.6 °F 59.5 °F 78% 30.46 in 10.0 mi North 12.7 mph - N/A   Overcast
1:13 AM 66.2 °F 60.8 °F 83% 30.13 in 10.0 mi North 8.1 mph - N/A   Overcast
1:18 AM 66.2 °F 60.8 °F 83% 30.13 in 10.0 mi North 8.1 mph - N/A   Overcast
1:33 AM 68.0 °F 60.8 °F 78% 30.13 in 10.0 mi North 5.8 mph - N/A   Overcast
1:58 AM 67.3 °F 61.0 °F 80% 30.44 in 10.0 mi NNE 10.4 mph - N/A   Overcast
2:54 AM 68.0 °F 60.8 °F 78% 30.09 in 10.0 mi NNE 9.2 mph - N/A   Mostly Cloudy
3:22 AM 68.0 °F 62.6 °F 83% 30.08 in 10.0 mi NNE 10.4 mph - N/A Rain Light Rain
3:38 AM 68.0 °F 62.6 °F 83% 30.08 in 10.0 mi NNE 12.7 mph - N/A   Overcast
3:49 AM 68.0 °F 62.6 °F 83% 30.08 in 10.0 mi NNE 12.7 mph - N/A Rain Light Rain
3:58 AM 68.4 °F 63.5 °F 84% 30.41 in 10.0 mi NNE 11.5 mph - 0.03 in Rain Heavy Rain
4:23 AM 66.2 °F 64.4 °F 94% 30.08 in 5.0 mi NNE 11.5 mph - N/A Rain Heavy Rain
4:33 AM 66.2 °F 64.4 °F 94% 30.08 in 7.0 mi NNE 5.8 mph - N/A Rain Heavy Rain
4:43 AM 66.2 °F 64.4 °F 94% 30.08 in 3.0 mi NNE 9.2 mph - N/A Rain Heavy Rain
4:58 AM 66.6 °F 64.6 °F 93% 30.41 in 4.0 mi NNE 11.5 mph - 0.54 in Rain Heavy Rain
5:03 AM 66.2 °F 64.4 °F 94% 30.08 in 5.0 mi NE 10.4 mph - N/A Rain Heavy Rain
5:08 AM 66.2 °F 64.4 °F 94% 30.08 in 5.0 mi NE 9.2 mph - N/A Rain Heavy Rain
5:20 AM 66.2 °F 66.2 °F 100% 30.08 in 6.0 mi NNE 8.1 mph - N/A Rain , Thunderstorm Heavy Thunderstorms and Rain
5:30 AM 66.2 °F 66.2 °F 100% 30.08 in 8.0 mi North 5.8 mph - N/A Rain , Thunderstorm Heavy Thunderstorms and Rain
5:40 AM 66.2 °F 66.2 °F 100% 30.08 in 5.0 mi NE 6.9 mph - N/A Rain , Thunderstorm Heavy Thunderstorms and Rain
5:45 AM 68.0 °F 66.2 °F 94% 30.08 in 5.0 mi NE 4.6 mph - N/A Rain , Thunderstorm Heavy Thunderstorms and Rain
5:50 AM 68.0 °F 66.2 °F 94% 30.08 in 8.0 mi NE 6.9 mph - N/A Rain , Thunderstorm Heavy Thunderstorms and Rain
5:55 AM 68.0 °F 66.2 °F 94% 30.09 in 9.0 mi NE 8.1 mph - N/A Rain , Thunderstorm Heavy Thunderstorms and Rain
5:58 AM 68.0 °F 66.2 °F 94% 30.42 in 8.0 mi NE 8.1 mph - 0.52 in Rain , Thunderstorm Heavy Thunderstorms and Rain
5:59 AM 68.0 °F 66.2 °F 94% 30.09 in 8.0 mi NE 6.9 mph - N/A Rain , Thunderstorm Heavy Rain
6:09 AM 68.0 °F 66.2 °F 94% 30.09 in 9.0 mi North 5.8 mph - N/A Rain , Thunderstorm Rain
6:19 AM 68.0 °F 66.2 °F 94% 30.09 in 10.0 mi NNE 4.6 mph - N/A Rain , Thunderstorm Light Rain
6:29 AM 68.0 °F 68.0 °F 100% 30.10 in 10.0 mi NW 1.2 mph - N/A Rain , Thunderstorm Light Rain
6:44 AM 68.0 °F 68.0 °F 100% 30.10 in 8.0 mi North 4.6 mph - N/A Rain Light Rain
6:49 AM 68.0 °F 68.0 °F 100% 30.10 in 8.0 mi NNE 3.5 mph - N/A Rain Rain
6:54 AM 68.0 °F 68.0 °F 100% 30.10 in 9.0 mi North 4.6 mph - N/A Rain Rain
6:58 AM 68.0 °F 67.6 °F 99% 30.43 in 10.0 mi North 5.8 mph - 0.07 in Rain Rain
7:23 AM 68.0 °F 68.0 °F 100% 30.11 in 10.0 mi NNE 8.1 mph - N/A Rain Light Rain
7:53 AM 68.0 °F 68.0 °F 100% 30.12 in 10.0 mi NNE 5.8 mph - N/A Rain Light Rain
7:58 AM 68.7 °F 68.4 °F 99% 30.45 in 10.0 mi NNE 5.8 mph - 0.04 in Rain Light Rain
8:02 AM 68.0 °F 68.0 °F 100% 30.12 in 10.0 mi NNE 5.8 mph - N/A   Overcast
8:12 AM 69.8 °F 68.0 °F 94% 30.12 in 10.0 mi NE 6.9 mph - N/A   Overcast
8:17 AM 69.8 °F 68.0 °F 94% 30.12 in 10.0 mi NE 8.1 mph - N/A   Overcast
8:52 AM 69.8 °F 69.8 °F 100% 30.12 in 10.0 mi NNE 8.1 mph - N/A   Overcast
8:58 AM 70.5 °F 70.3 °F 99% 30.45 in 10.0 mi NNE 6.9 mph - 0.00 in   Overcast
9:58 AM 71.4 °F 71.1 °F 99% 30.46 in 10.0 mi East 10.4 mph - N/A   Overcast
10:08 AM 71.6 °F 71.6 °F 100% 30.13 in 8.0 mi East 11.5 mph - N/A   Overcast
10:13 AM 71.6 °F 71.6 °F 100% 30.13 in 8.0 mi East 10.4 mph - N/A   Overcast
10:18 AM 71.6 °F 71.6 °F 100% 30.13 in 10.0 mi East 11.5 mph - N/A   Overcast
10:23 AM 73.4 °F 71.6 °F 94% 30.13 in 10.0 mi East 10.4 mph - N/A   Overcast
10:28 AM 73.4 °F 73.4 °F 100% 30.13 in 10.0 mi ENE 12.7 mph - N/A   Mostly Cloudy
10:58 AM 74.8 °F 71.4 °F 89% 30.46 in 10.0 mi East 10.4 mph 17.3 mph N/A   Overcast
11:03 AM 75.2 °F 71.6 °F 89% 30.13 in 10.0 mi ENE 15.0 mph - N/A   Overcast
11:23 AM 77.0 °F 69.8 °F 78% 30.14 in 10.0 mi East 12.7 mph 19.6 mph N/A   Scattered Clouds
11:58 AM 77.7 °F 70.2 °F 77% 30.46 in 10.0 mi East 8.1 mph - N/A   Mostly Cloudy
12:28 PM 77.0 °F 69.8 °F 78% 30.14 in 10.0 mi East 12.7 mph - N/A   Overcast
12:33 PM 77.0 °F 69.8 °F 78% 30.14 in 10.0 mi ENE 12.7 mph - N/A   Overcast
12:38 PM 77.0 °F 69.8 °F 78% 30.14 in 10.0 mi East 11.5 mph - N/A   Overcast
12:43 PM 77.0 °F 69.8 °F 78% 30.14 in 10.0 mi ENE 10.4 mph - N/A   Overcast
12:58 PM 75.7 °F 70.0 °F 82% 30.47 in 10.0 mi East 12.7 mph - N/A   Overcast
1:03 PM 75.2 °F 69.8 °F 83% 30.14 in 10.0 mi East 9.2 mph - N/A   Overcast
1:08 PM 75.2 °F 69.8 °F 83% 30.14 in 10.0 mi East 11.5 mph - N/A   Overcast
1:23 PM 77.0 °F 69.8 °F 78% 30.12 in 10.0 mi East 10.4 mph - N/A   Overcast
1:58 PM 78.6 °F 70.0 °F 75% 30.44 in 10.0 mi East 9.2 mph - N/A   Overcast
2:43 PM 77.0 °F 69.8 °F 78% 30.10 in 10.0 mi East 16.1 mph 19.6 mph N/A   Light Drizzle
2:52 PM 75.2 °F 69.8 °F 83% 30.10 in 10.0 mi East 10.4 mph 19.6 mph N/A   Overcast
2:58 PM 75.2 °F 69.1 °F 81% 30.42 in 10.0 mi East 10.4 mph - 0.00 in   Overcast
3:58 PM 75.9 °F 68.4 °F 77% 30.39 in 10.0 mi East 6.9 mph - N/A   Overcast
4:09 PM 75.2 °F 69.8 °F 83% 30.05 in 10.0 mi East 5.8 mph - N/A Rain Light Rain
4:42 PM 75.2 °F 71.6 °F 89% 30.03 in 10.0 mi East 8.1 mph - N/A   Scattered Clouds
4:58 PM 76.6 °F 71.6 °F 84% 30.35 in 10.0 mi East 11.5 mph - 0.01 in   Scattered Clouds
5:18 PM 77.0 °F 69.8 °F 78% 30.04 in 10.0 mi ESE 6.9 mph - N/A   Mostly Cloudy
5:38 PM 75.2 °F 69.8 °F 83% 30.04 in 10.0 mi ESE 6.9 mph - N/A   Scattered Clouds
5:58 PM 75.2 °F 68.7 °F 80% 30.39 in 10.0 mi ESE 4.6 mph - N/A   Scattered Clouds
6:58 PM 73.8 °F 69.6 °F 87% 30.39 in 10.0 mi East 5.8 mph - N/A   Mostly Cloudy
7:58 PM 72.3 °F 70.2 °F 93% 30.40 in 10.0 mi WNW 2.3 mph - N/A   Mostly Cloudy
8:03 PM 71.6 °F 69.8 °F 94% 30.08 in 10.0 mi WNW 3.5 mph - N/A   Light Drizzle
8:21 PM 71.6 °F 69.8 °F 94% 30.09 in 10.0 mi North 4.6 mph - N/A   Mostly Cloudy
8:36 PM 71.6 °F 69.8 °F 94% 30.08 in 7.0 mi NNE 1.2 mph - N/A   Mostly Cloudy
8:45 PM 71.6 °F 69.8 °F 94% 30.09 in 10.0 mi NNE 1.2 mph - N/A Rain Light Rain
8:55 PM 71.6 °F 69.8 °F 94% 30.09 in 6.0 mi North 2.3 mph - N/A   Mostly Cloudy
8:58 PM 71.6 °F 69.8 °F 94% 30.42 in 6.0 mi North 2.3 mph - 0.00 in   Mostly Cloudy
9:58 PM 70.9 °F 70.5 °F 99% 30.43 in 10.0 mi North 9.2 mph - N/A   Mostly Cloudy
10:13 PM 71.6 °F 71.6 °F 100% 30.11 in 10.0 mi NNE 9.2 mph - N/A   Mostly Cloudy
10:18 PM 71.6 °F 71.6 °F 100% 30.10 in 10.0 mi ENE 4.6 mph - N/A   Mostly Cloudy
10:23 PM 71.6 °F 71.6 °F 100% 30.10 in 10.0 mi NE 3.5 mph - N/A   Mostly Cloudy
10:28 PM 71.6 °F 71.6 °F 100% 30.10 in 10.0 mi NNE 3.5 mph - N/A   Mostly Cloudy
10:33 PM 71.6 °F 71.6 °F 100% 30.10 in 10.0 mi North 4.6 mph - N/A   Overcast
10:38 PM 71.6 °F 71.6 °F 100% 30.10 in 10.0 mi NNE 5.8 mph - N/A   Overcast
10:43 PM 71.6 °F 71.6 °F 100% 30.10 in 10.0 mi NE 10.4 mph - N/A   Overcast
10:48 PM 71.6 °F 71.6 °F 100% 30.10 in 10.0 mi NE 10.4 mph - N/A   Overcast
10:58 PM 71.1 °F 70.7 °F 99% 30.43 in 10.0 mi NE 12.7 mph - N/A   Overcast
11:13 PM 69.8 °F 69.8 °F 100% 30.10 in 10.0 mi ENE 13.8 mph 21.9 mph N/A   Overcast
11:14 PM 69.8 °F 69.8 °F 100% 30.10 in 10.0 mi ENE 13.8 mph 21.9 mph N/A   Light Drizzle
11:58 PM 69.4 °F 69.1 °F 99% 30.42 in 10.0 mi East 8.1 mph - 0.23 in Rain Light Rain